Weather in Assen

Netherlands     52°59′37″N   6°33′29″E
temp.,
°C
wind,
m/s
gust,
m/s
humid.,
%
clouds,
%
prec.,
mm/h
press.,
hPa
HPBL,
m
4 july, mon
mon423:00+13w35914 0.1 101974
02:00+11wsw34930 0.1 101964
05:00+11wsw369416 0.0 101998
08:00+15sw478497 0.0 1019311
11:00+18w5768100 0.3 10191116
14:00+21w68475 0.4 10191858
17:00+20w78490 0.0 10191698
20:00+17wnw46630 0.0 1019946
5 july, tue
tue523:00+12w23907 0.0 102029
02:00+11wsw34928 0.0 102148
05:00+11sw369055 0.0 102087
08:00+15sw4771100 0.1 1020310
11:00+17w576932 0.4 10211054
14:00+20w774849 0.8 10222036
17:00+18wnw775994 0.1 10221302
20:00+16nw576993 0.1 1023905
6 july, wed
wed623:00+11wnw34895 0.1 102453
02:00+10w3689100 0.1 102498
05:00+9w35905 0.0 102482
08:00+14wsw367425 0.0 1024328
11:00+18wsw5756100 0.0 10231249
14:00+19wsw7958100 0.0 10221496
17:00+16wsw51093100 0.6 1021635
20:00+15w5119699 3.0 1020609
7 july, thu
thu723:00+15wsw51097100 0.2 1019485
02:00+15wsw51197100 0.6 1017606
05:00+15wnw5109599 0.9 1017546
08:00+16nw61191100 0.9 1018801
11:00+16nnw8118345 0.6 10211010
14:00+19nnw9115322 0.7 10231627
17:00+16nnw71070100 0.1 10251496
20:00+16nnw7116374 0.1 10261403
8 july, fri
fri823:00+13nw511743 0.0 1027407
02:00+11nw488621 0.0 1028175
05:00+11nw389317 0.0 1028154
08:00+16nnw5870100 0.0 10291133
11:00+17nnw5777100 0.0 1030861
14:00+18nw678093 0.4 1030792
17:00+20nw687062 0.5 10301155
20:00+17nw577698 0.5 1029753